Location: Shandelee
(41.8790°N, 74.8713°W)
Time: 04:26:38
(UTC+00:00)

Meteor 2-10 Rocket - Pass Details

Date: 29 October 2020
Orbit: 733 x 885 km, 81.2° (Epoch: 23 November)

Event Time Altitude Azimuth Distance (km) Brightness Sun altitude
Rises 22:50:03 0° 172° (S) 3,307 6.8 -10.5°
Reaches altitude 10° 22:52:33 10° 166° (SSE) 2,356 6.0 -10.9°
Maximum altitude 22:57:35 46° 94° (E) 1,031 3.8 -11.8°
Drops below altitude 10° 23:02:28 10° 22° (NNE) 2,288 5.7 -12.7°
Sets 23:04:51 0° 17° (NNE) 3,201 6.5 -13.2°
